Time,TemperatureF,DewpointF,PressureIn,WindDirection,WindDirectionDegrees,WindSpeedMPH,WindSpeedGustMPH,Humidity,HourlyPrecipIn,Conditions,Clouds,dailyrainin,SoftwareType,DateUTC
2013-02-18 00:07:00,30.4,18.9,29.15,SE,145,6.0,12.0,62,0.00,CLR,,0.00,WeatherDisplay:10.37,2013-02-18 06:07:00,
2013-02-18 00:22:00,30.2,19.1,29.15,SE,140,5.0,10.0,63,0.00,CLR,,0.00,WeatherDisplay:10.37,2013-02-18 06:22:00,
2013-02-18 00:37:00,30.2,19.5,29.12,SE,139,5.0,9.0,64,0.00,CLR,,0.00,WeatherDisplay:10.37,2013-02-18 06:37:00,
2013-02-18 00:52:00,30.4,19.3,29.15,SE,145,6.0,11.0,63,0.00,CLR,,0.00,WeatherDisplay:10.37,2013-02-18 06:52:00,
2013-02-18 01:07:00,30.4,19.3,29.15,SE,139,3.0,8.0,63,0.00,CLR,,0.00,WeatherDisplay:10.37,2013-02-18 07:07:00,
2013-02-18 01:22:00,30.4,19.3,29.12,SSE,149,5.0,10.0,63,0.00,CLR,,0.00,WeatherDisplay:10.37,2013-02-18 07:22:00,
2013-02-18 01:37:00,30.6,19.8,29.12,SE,146,6.0,8.0,64,0.00,CLR,,0.00,WeatherDisplay:10.37,2013-02-18 07:37:00,
2013-02-18 01:52:00,30.4,19.6,29.12,SSE,147,5.0,10.0,64,0.00,CLR,,0.00,WeatherDisplay:10.37,2013-02-18 07:52:00,
2013-02-18 02:07:00,30.4,20.0,29.09,SSE,148,6.0,9.0,65,0.00,CLR,,0.00,WeatherDisplay:10.37,2013-02-18 08:07:00,
2013-02-18 02:22:00,30.4,20.4,29.06,SE,141,5.0,7.0,66,0.00,CLR,,0.00,WeatherDisplay:10.37,2013-02-18 08:22:00,
2013-02-18 02:37:00,30.2,20.2,29.06,SSE,148,5.0,8.0,66,0.00,CLR,,0.00,WeatherDisplay:10.37,2013-02-18 08:37:00,
2013-02-18 02:52:00,30.4,20.4,29.09,SE,140,7.0,10.0,66,0.00,CLR,,0.00,WeatherDisplay:10.37,2013-02-18 08:52:00,
2013-02-18 03:07:00,30.7,20.7,29.09,SE,139,3.0,6.0,66,0.00,CLR,,0.00,WeatherDisplay:10.37,2013-02-18 09:07:00,
2013-02-18 03:22:00,31.1,21.4,29.06,SE,143,6.0,8.0,67,0.00,CLR,,0.00,WeatherDisplay:10.37,2013-02-18 09:22:00,
2013-02-18 03:37:00,31.5,21.4,29.03,SSE,149,5.0,9.0,66,0.00,CLR,,0.00,WeatherDisplay:10.37,2013-02-18 09:37:00,
2013-02-18 03:52:00,32.0,21.9,29.03,SSE,147,6.0,7.0,66,0.00,CLR,,0.00,WeatherDisplay:10.37,2013-02-18 09:52:00,
2013-02-18 04:07:00,32.0,21.9,29.03,SSE,152,6.0,9.0,66,0.00,CLR,,0.00,WeatherDisplay:10.37,2013-02-18 10:07:00,
2013-02-18 04:22:00,31.8,21.7,29.00,SE,145,5.0,10.0,66,0.00,CLR,,0.00,WeatherDisplay:10.37,2013-02-18 10:22:00,
2013-02-18 04:37:00,31.6,21.9,29.03,SSE,155,5.0,8.0,67,0.00,CLR,,0.00,WeatherDisplay:10.37,2013-02-18 10:37:00,
2013-02-18 04:52:00,31.5,22.1,29.03,SSE,155,3.0,9.0,68,0.00,CLR,,0.00,WeatherDisplay:10.37,2013-02-18 10:52:00,
2013-02-18 05:22:00,31.3,23.0,29.00,SSE,162,3.0,6.0,71,0.00,CLR,,0.00,WeatherDisplay:10.37,2013-02-18 11:22:00,
2013-02-18 05:37:00,31.5,23.1,29.00,SSE,149,5.0,7.0,71,0.00,CLR,,0.00,WeatherDisplay:10.37,2013-02-18 11:37:00,
2013-02-18 05:52:00,31.5,23.5,29.00,SSE,158,3.0,6.0,72,0.00,CLR,,0.00,WeatherDisplay:10.37,2013-02-18 11:52:00,
2013-02-18 06:07:00,31.5,23.8,29.00,SE,138,1.0,6.0,73,0.00,CLR,,0.00,WeatherDisplay:10.37,2013-02-18 12:07:00,
2013-02-18 06:22:00,31.5,23.8,29.00,SE,142,5.0,8.0,73,0.00,CLR,,0.00,WeatherDisplay:10.37,2013-02-18 12:22:00,
2013-02-18 06:37:00,31.5,24.1,28.97,SSE,162,3.0,6.0,74,0.00,CLR,,0.00,WeatherDisplay:10.37,2013-02-18 12:37:00,
2013-02-18 06:52:00,31.6,24.6,28.97,SSE,153,3.0,6.0,75,0.00,CLR,,0.00,WeatherDisplay:10.37,2013-02-18 12:52:00,
2013-02-18 07:07:00,31.8,24.8,28.97,SSE,152,3.0,8.0,75,0.00,CLR,,0.00,WeatherDisplay:10.37,2013-02-18 13:07:00,
2013-02-18 07:22:00,32.2,25.1,28.97,SE,138,3.0,7.0,75,0.00,CLR,,0.00,WeatherDisplay:10.37,2013-02-18 13:22:00,
2013-02-18 07:37:00,33.0,25.9,28.97,SSE,159,6.0,6.0,75,0.00,CLR,,0.00,WeatherDisplay:10.37,2013-02-18 13:37:00,
2013-02-18 07:48:00,33.6,26.2,28.94,SE,142,2.0,3.0,74,0.00,CLR,,0.00,WeatherDisplay:10.37,2013-02-18 13:48:00,
2013-02-18 08:07:00,27.0,21.0,28.91,WNW,292,8.0,13.0,78,0.00,CLR,,0.34,WeatherDisplay:10.37,2013-02-18 14:07:00,
2013-02-18 08:22:00,35.5,27.4,28.97,SSE,147,3.0,9.0,72,0.00,CLR,,0.00,WeatherDisplay:10.37,2013-02-18 14:22:00,
2013-02-18 08:37:00,37.7,28.8,28.97,SE,146,3.0,9.0,70,0.00,CLR,,0.00,WeatherDisplay:10.37,2013-02-18 14:37:00,
2013-02-18 08:52:00,38.8,28.4,28.97,South,174,3.0,8.0,66,0.00,CLR,,0.00,WeatherDisplay:10.37,2013-02-18 14:52:00,
2013-02-18 09:07:00,39.9,28.7,28.97,South,186,3.0,6.0,64,0.00,CLR,,0.00,WeatherDisplay:10.37,2013-02-18 15:07:00,
2013-02-18 09:22:00,41.0,28.6,28.94,SSW,199,6.0,7.0,61,0.00,CLR,,0.00,WeatherDisplay:10.37,2013-02-18 15:22:00,
2013-02-18 09:37:00,42.1,29.2,28.94,SSW,192,5.0,9.0,60,0.00,CLR,,0.00,WeatherDisplay:10.37,2013-02-18 15:37:00,
2013-02-18 09:52:00,43.3,30.0,28.94,South,187,5.0,9.0,59,0.00,CLR,,0.00,WeatherDisplay:10.37,2013-02-18 15:52:00,
2013-02-18 10:07:00,44.7,29.9,28.91,SSW,192,5.0,9.0,56,0.00,CLR,,0.00,WeatherDisplay:10.37,2013-02-18 16:07:00,
2013-02-18 10:22:00,45.5,30.7,28.91,SSW,195,7.0,10.0,56,0.00,CLR,,0.00,WeatherDisplay:10.37,2013-02-18 16:22:00,
2013-02-18 10:37:00,47.0,31.7,28.91,SSW,194,5.0,7.0,55,0.00,CLR,,0.00,WeatherDisplay:10.37,2013-02-18 16:37:00,
2013-02-18 10:52:00,48.4,32.1,28.91,SSW,203,3.0,7.0,53,0.00,CLR,,0.00,WeatherDisplay:10.37,2013-02-18 16:52:00,
2013-02-18 11:07:00,49.3,32.9,28.91,South,186,3.0,7.0,53,0.00,CLR,,0.00,WeatherDisplay:10.37,2013-02-18 17:07:00,
2013-02-18 11:22:00,52.1,34.5,28.91,South,190,7.0,8.0,51,0.00,CLR,,0.00,WeatherDisplay:10.37,2013-02-18 17:22:00,
2013-02-18 11:37:00,54.0,35.2,28.91,SSW,213,8.0,12.0,49,0.00,CLR,,0.00,WeatherDisplay:10.37,2013-02-18 17:37:00,
2013-02-18 11:52:00,54.5,35.7,28.88,SW,219,6.0,7.0,49,0.00,CLR,,0.00,WeatherDisplay:10.37,2013-02-18 17:52:00,
2013-02-18 12:07:00,55.6,36.2,28.88,SW,216,8.0,12.0,48,0.00,CLR,,0.00,WeatherDisplay:10.37,2013-02-18 18:07:00,
2013-02-18 12:22:00,58.3,38.1,28.85,SW,222,5.0,13.0,47,0.00,CLR,,0.00,WeatherDisplay:10.37,2013-02-18 18:22:00,
2013-02-18 12:37:00,58.7,38.5,28.85,SW,218,5.0,10.0,47,0.00,CLR,,0.00,WeatherDisplay:10.37,2013-02-18 18:37:00,
2013-02-18 12:52:00,56.1,36.1,28.85,SW,222,7.0,10.0,47,0.00,CLR,,0.00,WeatherDisplay:10.37,2013-02-18 18:52:00,
2013-02-18 13:07:00,54.5,35.7,28.85,SSW,208,6.0,9.0,49,0.00,CLR,,0.00,WeatherDisplay:10.37,2013-02-18 19:07:00,
2013-02-18 13:22:00,53.4,36.2,28.85,SSW,210,3.0,7.0,52,0.00,CLR,,0.00,WeatherDisplay:10.37,2013-02-18 19:22:00,
2013-02-18 13:37:00,52.5,36.3,28.85,SSW,194,3.0,7.0,54,0.00,CLR,,0.00,WeatherDisplay:10.37,2013-02-18 19:37:00,
2013-02-18 13:52:00,51.8,37.0,28.85,SSW,199,3.0,8.0,57,0.00,CLR,,0.00,WeatherDisplay:10.37,2013-02-18 19:52:00,
2013-02-18 14:07:00,50.7,37.8,28.82,SSW,196,5.0,9.0,61,0.00,CLR,,0.00,WeatherDisplay:10.37,2013-02-18 20:07:00,
2013-02-18 14:37:00,48.7,40.1,28.82,South,183,3.0,6.0,72,0.00,CLR,,0.00,WeatherDisplay:10.37,2013-02-18 20:37:00,
2013-02-18 14:52:00,48.0,40.8,28.79,SSW,195,3.0,6.0,76,0.00,CLR,,0.00,WeatherDisplay:10.37,2013-02-18 20:52:00,
2013-02-18 15:07:00,47.1,40.0,28.79,SSW,200,1.0,3.0,76,0.00,CLR,,0.00,WeatherDisplay:10.37,2013-02-18 21:07:00,
2013-02-18 15:22:00,46.0,39.2,28.79,South,188,0.0,0.0,77,0.00,CLR,,0.00,WeatherDisplay:10.37,2013-02-18 21:22:00,
2013-02-18 15:37:00,45.0,38.8,28.79,WNW,287,0.0,0.0,79,0.00,CLR,,0.00,WeatherDisplay:10.37,2013-02-18 21:37:00,
2013-02-18 15:52:00,44.6,38.8,28.79,WNW,292,0.0,0.0,80,0.00,RA,,0.05,WeatherDisplay:10.37,2013-02-18 21:52:00,
2013-02-18 16:07:00,44.2,40.3,28.79,WNW,287,2.0,3.0,86,0.04,RA,,0.09,WeatherDisplay:10.37,2013-02-18 22:07:00,
2013-02-18 16:22:00,42.8,39.2,28.79,WNW,287,5.0,8.0,87,0.04,RA,,0.13,WeatherDisplay:10.37,2013-02-18 22:22:00,
2013-02-18 16:37:00,41.7,39.0,28.79,West,279,5.0,7.0,90,0.00,CLR,,0.13,WeatherDisplay:10.37,2013-02-18 22:37:00,
2013-02-18 16:52:00,41.0,38.9,28.79,WNW,292,7.0,12.0,92,0.00,RA,,0.17,WeatherDisplay:10.37,2013-02-18 22:52:00,
2013-02-18 17:07:00,39.6,36.3,28.79,NW,304,3.0,9.0,88,0.00,RA,,0.21,WeatherDisplay:10.37,2013-02-18 23:07:00,
2013-02-18 17:22:00,38.3,35.6,28.79,NW,308,1.0,6.0,90,0.00,CLR,,0.21,WeatherDisplay:10.37,2013-02-18 23:22:00,
2013-02-18 17:37:00,36.9,34.2,28.79,WNW,299,6.0,9.0,90,0.00,,,0.25,WeatherDisplay:10.37,2013-02-18 23:37:00,
2013-02-18 17:52:00,35.5,33.4,28.79,NW,306,5.0,9.0,92,0.00,,,0.30,WeatherDisplay:10.37,2013-02-18 23:52:00,
2013-02-18 18:07:00,34.0,32.2,28.82,WNW,298,5.0,8.0,93,0.00,CLR,,0.30,WeatherDisplay:10.37,2013-02-19 00:07:00,
2013-02-18 18:22:00,33.3,32.3,28.85,NW,308,2.0,6.0,96,0.00,CLR,,0.30,WeatherDisplay:10.37,2013-02-19 00:22:00,
2013-02-18 18:37:00,33.1,32.3,28.85,WNW,292,2.0,5.0,97,0.00,CLR,,0.30,WeatherDisplay:10.37,2013-02-19 00:37:00,
2013-02-18 18:52:00,32.9,32.4,28.82,WNW,292,3.0,6.0,98,0.00,CLR,,0.30,WeatherDisplay:10.37,2013-02-19 00:52:00,
2013-02-18 19:07:00,32.7,32.2,28.85,WNW,292,5.0,8.0,98,0.00,CLR,,0.30,WeatherDisplay:10.37,2013-02-19 01:07:00,
2013-02-18 19:22:00,32.7,32.2,28.85,WNW,292,5.0,8.0,98,0.00,CLR,,0.34,WeatherDisplay:10.37,2013-02-19 01:22:00,
2013-02-18 22:52:00,22.6,15.6,28.97,WNW,292,10.0,14.0,74,0.00,CLR,,0.34,WeatherDisplay:10.37,2013-02-19 04:52:00,
2013-02-18 23:07:00,21.7,14.1,28.97,WNW,292,7.0,15.0,72,0.00,CLR,,0.34,WeatherDisplay:10.37,2013-02-19 05:07:00,
2013-02-18 23:22:00,21.0,13.1,29.00,WNW,292,9.0,13.0,71,0.00,CLR,,0.34,WeatherDisplay:10.37,2013-02-19 05:22:00,
2013-02-18 23:37:00,20.5,12.6,29.00,WNW,292,6.0,13.0,71,0.00,CLR,,0.34,WeatherDisplay:10.37,2013-02-19 05:37:00,
2013-02-18 23:52:00,20.3,13.0,29.00,WNW,292,10.0,14.0,73,0.00,CLR,,0.34,WeatherDisplay:10.37,2013-02-19 05:52:00,